CW5624 Weather Reports


time (UTC)temp
C
wind
direction
speed
KPH
gust
KPH
rain 1hr
cm
rain 24hr
cm
rain mn
cm
humidity
%
barometer
mb
20240222100604 -6 205 0.0 0.0 0.00 0.00 0.00 49 1021.5
20240222095603 -6 205 0.0 0.0 0.00 0.00 0.00 49 1021.8
20240222094603 -6 205 0.0 0.0 0.00 0.00 0.00 49 1021.8
20240222093603 -6 205 0.0 0.0 0.00 0.00 0.00 49 1022.1
20240222092603 -6 205 0.0 0.0 0.00 0.00 0.00 51 1022.1
20240222091604 -6 205 0.0 0.0 0.00 0.00 0.00 50 1022.0
20240222090603 -6 205 0.0 0.0 0.00 0.00 0.00 52 1022.1
20240222085603 -6 205 0.0 0.0 0.00 0.00 0.00 53 1022.0
20240222084603 -6 205 0.0 0.0 0.00 0.00 0.00 53 1022.4
20240222083603 -6 205 0.0 0.0 0.00 0.00 0.00 53 1022.4
20240222082603 -5 205 0.0 0.0 0.00 0.00 0.00 53 1022.4
20240222081604 -5 205 0.0 0.0 0.00 0.00 0.00 55 1022.5
20240222080603 -5 205 0.0 0.0 0.00 0.00 0.00 55 1022.8
20240222075603 -5 205 0.0 0.0 0.00 0.00 0.00 56 1023.1
20240222074603 -5 205 0.0 0.0 0.00 0.00 0.00 56 1023.2
20240222073603 -5 205 0.0 0.0 0.00 0.00 0.00 57 1023.5
20240222072603 -5 205 0.0 0.0 0.00 0.00 0.00 57 1023.6
20240222071603 -5 205 0.0 0.0 0.00 0.00 0.00 58 1023.8
20240222070603 -5 205 0.0 0.0 0.00 0.00 0.00 59 1023.9
20240222065603 -5 205 0.0 0.0 0.00 0.00 0.00 59 1024.2
20240222064603 -5 205 0.0 0.0 0.00 0.00 0.00 60 1024.2
20240222063604 -5 205 0.0 0.0 0.00 0.00 0.00 60 1024.2
20240222062604 -5 205 0.0 0.0 0.00 0.00 0.00 62 1024.3
20240222061603 -5 205 0.0 0.0 0.00 0.00 0.00 63 1024.5
20240222060603 -4 205 0.0 0.0 0.00 0.00 0.00 64 1024.6
20240222055603 -4 205 0.0 0.0 0.00 0.00 0.00 65 1024.6
20240222054606 -4 205 0.0 0.0 0.00 0.00 0.00 65 1024.6
20240222053603 -4 205 0.0 0.0 0.00 0.00 0.00 66 1024.8
20240222052603 -4 205 0.0 0.0 0.00 0.00 0.00 66 1024.9
20240222051603 -3 205 0.0 0.0 0.00 0.00 0.00 66 1025.0
20240222050603 -3 205 0.0 0.0 0.00 0.00 0.00 67 1025.1
20240222045603 -3 205 0.0 0.0 0.00 0.00 0.00 68 1025.1
20240222044603 -3 205 0.0 0.0 0.00 0.00 0.00 69 1025.3
20240222043603 -3 205 0.0 0.0 0.00 0.00 0.00 69 1025.3
20240222042603 -3 205 0.0 0.0 0.00 0.00 0.00 69 1025.4
20240222041606 -3 205 0.0 0.0 0.00 0.00 0.00 70 1025.5
20240222040603 -3 205 0.0 0.0 0.00 0.00 0.00 70 1025.8
20240222035603 -3 205 0.0 0.0 0.00 0.00 0.00 71 1025.9
20240222034603 -3 205 0.0 0.0 0.00 0.00 0.00 72 1026.1
20240222033603 -2 205 0.0 0.0 0.00 0.00 0.00 72 1026.3
20240222032603 -2 205 0.0 0.0 0.00 0.00 0.00 73 1026.5
20240222031603 -2 205 0.0 0.0 0.00 0.00 0.00 73 1026.6
20240222030603 -2 205 0.0 0.0 0.00 0.00 0.00 73 1026.7
20240222025603 -2 205 0.0 0.0 0.00 0.00 0.00 73 1026.8
20240222024603 -2 205 0.0 0.0 0.00 0.00 0.00 73 1026.9
20240222023603 -2 205 0.0 0.0 0.00 0.00 0.00 73 1026.9
20240222022603 -2 205 0.0 0.0 0.00 0.00 0.00 73 1027.0
20240222021603 -2 205 0.0 0.0 0.00 0.00 0.00 74 1027.2
20240222020603 -2 205 0.0 0.0 0.00 0.00 0.00 74 1027.3
20240222015603 -1 205 0.0 0.0 0.00 0.00 0.00 74 1027.3
20240222014603 -1 205 0.0 0.0 0.00 0.00 0.00 74 1027.2
20240222013603 -1 205 0.0 0.0 0.00 0.00 0.00 74 1027.3
20240222012603 -1 205 0.0 0.0 0.00 0.00 0.00 74 1027.5
20240222011604 -1 205 0.0 1.6 0.00 0.00 0.00 73 1027.7
20240222010603 -1 205 0.0 3.2 0.00 0.00 0.00 73 1027.7
20240222005604 -1 206 0.0 1.6 0.00 0.00 0.00 73 1027.8
20240222004604 0 206 0.0 3.2 0.00 0.00 0.00 73 1028.0
20240222003603 0 206 0.0 4.8 0.00 0.00 0.00 73 1028.1
20240222002604 0 191 0.0 4.8 0.00 0.00 0.00 73 1028.1
20240222001604 0 174 0.0 3.2 0.00 0.00 0.00 73 1028.2
20240222000604 0 174 0.0 1.6 0.00 0.00 0.00 72 1028.3
20240221235604 0 174 0.0 1.6 0.00 0.00 0.00 72 1028.3
20240221234606 0 174 0.0 1.6 0.00 0.00 0.00 71 1028.3
20240221233604 0 174 0.0 0.0 0.00 0.00 0.00 71 1028.4
20240221232604 0 174 3.2 3.2 0.00 0.00 0.00 71 1028.4
20240221231605 0 186 0.0 1.6 0.00 0.00 0.00 70 1028.4
20240221230604 0 146 0.0 4.8 0.00 0.00 0.00 70 1028.3
20240221225604 0 172 0.0 8.0 0.00 0.00 0.00 70 1028.3
20240221224604 1 221 0.0 11.3 0.00 0.00 0.00 69 1028.2
20240221223604 1 196 3.2 9.7 0.00 0.00 0.00 69 1028.2
20240221222604 1 168 0.0 9.7 0.00 0.00 0.00 69 1028.3
20240221221604 1 205 0.0 9.7 0.00 0.00 0.00 70 1028.3
20240221220604 1 141 0.0 6.4 0.00 0.00 0.00 69 1028.4
20240221215604 1 97 0.0 9.7 0.00 0.00 0.00 69 1028.6
20240221214605 1 140 4.8 4.8 0.00 0.00 0.00 69 1028.8
20240221213604 2 192 0.0 8.0 0.00 0.00 0.00 68 1028.8
20240221212605 2 217 1.6 9.7 0.00 0.00 0.00 67 1028.8
20240221211606 2 188 6.4 8.0 0.00 0.00 0.00 66 1028.8
20240221210604 2 144 3.2 12.9 0.00 0.00 0.00 65 1028.8
20240221205604 2 172 3.2 8.0 0.00 0.00 0.00 64 1028.8
20240221204606 2 141 0.0 6.4 0.00 0.00 0.00 63 1028.8
20240221203604 3 17 1.6 14.5 0.00 0.00 0.00 61 1028.8
20240221202604 3 115 0.0 6.4 0.00 0.00 0.00 60 1028.8
20240221201604 3 159 3.2 9.7 0.00 0.00 0.00 59 1028.8
20240221200604 3 167 0.0 4.8 0.00 0.00 0.00 58 1028.8
20240221195604 3 159 3.2 9.7 0.00 0.00 0.00 58 1028.8
20240221194604 3 204 1.6 11.3 0.00 0.00 0.00 57 1028.9
20240221193604 4 198 0.0 4.8 0.00 0.00 0.00 53 1028.9
20240221192604 3 188 3.2 4.8 0.00 0.00 0.00 54 1028.9
20240221191604 3 19 1.6 6.4 0.00 0.00 0.00 53 1029.0
20240221190604 3 48 0.0 6.4 0.00 0.00 0.00 53 1029.2
20240221185608 3 11 1.6 6.4 0.00 0.00 0.00 54 1029.3
20240221184604 3 36 1.6 8.0 0.00 0.00 0.00 53 1029.4
20240221183604 4 108 0.0 4.8 0.00 0.00 0.00 53 1029.6
20240221182604 4 84 0.0 4.8 0.00 0.00 0.00 51 1029.8
20240221181604 3 217 0.0 3.2 0.00 0.00 0.00 54 1030.0
20240221180604 3 200 0.0 6.4 0.00 0.00 0.00 56 1030.2
20240221175604 3 28 0.0 8.0 0.00 0.00 0.00 56 1030.5
20240221174604 3 86 1.6 6.4 0.00 0.00 0.00 55 1030.8
20240221173605 4 318 0.0 6.4 0.00 0.00 0.00 54 1031.0
20240221172604 4 225 0.0 6.4 0.00 0.00 0.00 54 1031.3
20240221171604 4 154 0.0 8.0 0.00 0.00 0.00 56 1031.5
20240221170604 3 77 0.0 4.8 0.00 0.00 0.00 57 1031.7
20240221165604 3 197 0.0 11.3 0.00 0.00 0.00 56 1032.1
20240221164604 3 231 1.6 8.0 0.00 0.00 0.00 56 1032.3
20240221163606 3 303 1.6 4.8 0.00 0.00 0.00 57 1032.5
20240221162604 3 308 1.6 8.0 0.00 0.00 0.00 56 1032.9
20240221161604 3 138 4.8 11.3 0.00 0.00 0.00 56 1033.1
20240221160640 3 257 0.0 8.0 0.00 0.00 0.00 58 1033.2
20240221155604 3 244 0.0 9.7 0.00 0.00 0.00 56 1033.4
20240221154604 3 163 4.8 6.4 0.00 0.00 0.00 58 1033.6
20240221153604 2 216 11.3 12.9 0.00 0.00 0.00 59 1033.8
20240221152604 2 109 1.6 8.0 0.00 0.00 0.00 59 1033.9
20240221151604 2 205 6.4 6.4 0.00 0.00 0.00 61 1033.9
20240221150604 1 96 0.0 4.8 0.00 0.00 0.00 61 1034.0
20240221145604 1 104 0.0 4.8 0.00 0.00 0.00 60 1034.1
20240221144605 1 218 0.0 8.0 0.00 0.00 0.00 62 1034.3
20240221143604 0 239 1.6 8.0 0.00 0.00 0.00 64 1034.4
20240221142607 0 181 0.0 4.8 0.00 0.00 0.00 65 1034.5
20240221141604 0 162 0.0 3.2 0.00 0.00 0.00 68 1034.6
20240221140604 -1 155 0.0 1.6 0.00 0.00 0.00 70 1034.5
20240221135604 -2 155 0.0 1.6 0.00 0.00 0.00 73 1034.6
20240221134605 -2 155 0.0 1.6 0.00 0.00 0.00 74 1034.7
20240221133605 -3 155 0.0 3.2 0.00 0.00 0.00 73 1034.6
20240221132605 -3 155 0.0 1.6 0.00 0.00 0.00 70 1034.5
20240221131605 -4 155 0.0 0.0 0.00 0.00 0.00 67 1034.5
20240221130605 -5 155 0.0 0.0 0.00 0.00 0.00 63 1034.4
20240221125605 -5 155 0.0 0.0 0.00 0.00 0.00 61 1034.4
20240221124605 -6 155 0.0 0.0 0.00 0.00 0.00 58 1034.2
20240221123605 -6 156 0.0 0.0 0.00 0.00 0.00 56 1034.3
20240221122605 -6 156 0.0 0.0 0.00 0.00 0.00 57 1034.4
20240221121605 -7 156 0.0 0.0 0.00 0.00 0.00 59 1034.4
20240221120605 -7 156 0.0 0.0 0.00 0.00 0.00 59 1034.4
20240221115605 -7 156 0.0 0.0 0.00 0.00 0.00 61 1034.2
20240221114605 -7 156 0.0 0.0 0.00 0.00 0.00 62 1034.1
20240221113605 -7 156 0.0 0.0 0.00 0.00 0.00 63 1034.1
20240221112605 -7 156 0.0 0.0 0.00 0.00 0.00 63 1034.2
20240221111605 -7 156 0.0 0.0 0.00 0.00 0.00 63 1034.1
20240221110605 -7 156 0.0 0.0 0.00 0.00 0.00 64 1034.0
20240221105605 -7 156 0.0 0.0 0.00 0.00 0.00 65 1034.1
20240221104605 -7 156 0.0 0.0 0.00 0.00 0.00 65 1034.0
20240221103605 -7 156 0.0 0.0 0.00 0.00 0.00 66 1033.9
20240221102605 -7 156 0.0 0.0 0.00 0.00 0.00 67 1033.9
20240221101605 -7 156 0.0 0.0 0.00 0.00 0.00 67 1033.9